ONEWEB-0705, 61610

Orbit data source: Space-Track

ONEWEB-0705, 61610 is a payload satellite owned by Eut. One Web (UK) in LEO that was launched on Sun, 20 Oct 2024 UTC via an FALCON 9 launch vehicle from the Air Force Western Test Range (AFWTR). Payload-class satellites include a variety of spacecraft equipped with specific instruments for various scientific and technological missions. These include communications satellites like Starlink; space stations such as the ISS; scientific satellites like the Hubble; Earth observation satellites from companies like Planet Labs, Umbra, and HawkEye 360; GPS; miniature CubeSats for education and research; and military/defense satellites.

Loading next visibility...
Identifier
61610, 2024-188S
Orbit
LEO
Last TLE update
8 hours ago
Origin
Manufacturer
One Web
Mission
Operational Commercial Communications
Bus & Motor
ARROW, Unknown motor
Mass
148 kg wet, ~140 kg dry
Launch date (UTC)
2024-10-20 (8 months ago)
Launch vehicle
FALCON 9
Launch site
Air Force Western Test Range (AFWTR)
Object type
Payload
Rocket body
Debris
Shape & HBR
Trap Box + 2 Pan, 5 m
Radar Cross Section
2.032 m², Large (>1 m²)

Expand to show TLE details & history

TLE from 8 hours ago
0 ONEWEB-0705
1 61610U 24188S   25182.82255189 -.00000802  00000-0 -23333-2 0  9993
2 61610  87.8814 106.1184 0002015  40.8264 319.3014 13.10374321 29574
Epoch: 2025-07-01T19:44Z
TLE epoch observation values (Epoch: 2025-07-01T19:44:28.483Z)
Latitude
-0.00001°
Longitude
-110.11277°
Altitude
1,223.438 km
Speed
7.243 km/s
True Right ascension
07h 04m 28s
True Declination
0° 00' 00"
Sunlit
Object was in daylight at epoch
Visualization orbit readout
Latitude
60.71543°
Longitude
66.05832°
Altitude
1,231.847 km
Speed
7.244 km/s
Apparent Right ascension
00h 07m 53s
Apparent Declination
33° 01' 31"
Sunlit
Object is in daylight
Visualization observer readout
Local Sidereal Time
15:21:58
Azimuth
39.048° NE
Elevation
-4.371°
Doppler factor
1
Orbital elements
Apogee altitude
1,220.362 km
Perigee altitude
1,217.3 km
Semi-major axis
7,596.968 km
Eccentricity
0.0002
Inclination
87.8814°
RAAN
106.1184°
Arg. of periapsis
40.8264°
True anomaly
Unknown
Mean anomaly
319.3014°
Eccentric anomaly
Unknown
Mean motion
3.2778 °/min
Orbital period
109.83 mins
BSTAR
-0.0023333
Loading maneuver chart data...
Loading SW <> Apogee altitude chart data...
Loading historical data...
Loading historical data...
Loading historical data...
Loading historical data...
Loading historical data...
Loading historical data...
Loading historical data...

ONEWEB-0705 Visibility forecast

Observer location: undefined°, undefined°

Span
Click to sort rows by Start time (UTC) header in descending order
Start Az.
Max El. time (UTC)
Max El. Az.
Max El.
End time (UTC)
End Az.
9 mins2025-07-02 05:31:41.161Z34.289° NE2025-07-02 05:35:41.161Z68.882° E17.674°2025-07-02 05:40:41.161Z113.637° SE
13 mins2025-07-02 07:20:41.161Z355.284° N2025-07-02 07:26:41.161Z290.68° WNW44.061°2025-07-02 07:33:41.161Z188.957° SSW
9 mins2025-07-02 17:52:41.161Z113.446° SE2025-07-02 17:56:41.161Z76.162° E19.957°2025-07-02 18:01:41.161Z31.166° NE
12 mins2025-07-02 19:40:41.161Z193.197° SSW2025-07-02 19:45:41.161Z253.73° W42.59°2025-07-02 19:52:41.161Z354.482° N
|